Find Ningxia-1 02 xing

NORAD ID: 44780 Int'l Des: 2019-076 Owner: NINGX/CASC Country: CN operational
LEOCIRCULAR

Current View

Loading 3D Globe...

About Ningxia-1 02 xing

Description loading...

Upcoming Passes

Passes for default location (London). Set your location on the main map for personalized predictions.

Altitude History

Loading altitude history...

Two-Line Element Set

1 44780U 19076B 26151.20611666 -.00000077 00000-0 34334-4 0 9995
2 44780 45.0088 256.0703 0006013 68.0610 292.0863 14.02053878335474
Epoch: May 31, 2026 • Age: 11 hours

Current Status

Altitude 905.0 km
Velocity 7.40 km/s
Sub-Earth Point -44.04°S, 12.32°E
Launch Date Nov 13, 2019
Age 6.5 years
Type other

Technical Details

Classification Payload
Mass 100.00 kg
Dry Mass 100.00 kg
Total Mass 100.00 kg
Length 0.50 m
Diameter 0.20 m
Span 1.00 m
Shape Box + 2 pan
Manufacturer DFHZ
Bus Type NX-1
Phase Status In Orbit
Owner/State NINGX/CASC/CN

Most Searched